Weather in Nawabganj

Bangladesh     24°35′11″N   88°16′11″E
temp.,
°C
wind,
m/s
gust,
m/s
humid.,
%
clouds,
%
prec.,
mm/h
press.,
hPa
HPBL,
m
8 may, sat
sat800:00+26s366999 0.0 1010229
03:00+26s247499 0.0 1009138
06:00+25ese22714 0.4 100951
09:00+30sse44485 0.0 1011787
12:00+34sse32370 0.0 10091429
15:00+36ssw23320 0.0 10052095
18:00+27sw5570100 2.6 1005158
21:00+27n116159 3.9 100765
9 may, sun
sun900:00+28e356783 4.6 1007195
03:00+27sw24741 0.0 1007172
06:00+26sse23690 0.0 1007123
09:00+30sse23585 0.0 1009838
12:00+35sse43400 0.0 10071458
15:00+37s23320 0.0 10032038
18:00+29se1252100 2.6 100282
21:00+29n115311 0.0 100429
10 may, mon
mon1000:00+28se346873 0.4 1005242
03:00+27sse247412 0.0 1004211
06:00+27s488421 0.0 1004372
09:00+32s44525 0.0 1006777
12:00+36s33380 0.0 10041740
15:00+38w13290 0.0 10002180
18:00+34nnw34404 0.1 999262
21:00+30ese595999 0.0 1002478
11 may, tue
tue1100:00+29ssw6115596 0.1 1004494
03:00+27sse48614 0.1 1003379
06:00+26ese5672100 1.2 1003265
09:00+31se45560 0.0 1006959
12:00+36sse45423 0.0 10041964
15:00+38sse443332 0.0 9992459
18:00+26w1657100 7.3 1001219
21:00+26ese34676 2.9 1003282
12 may, wed
wed1200:00+25ese24685 2.9 1005339
03:00+25ene237129 0.2 1005228
06:00+24ese611835 0.2 1005417
09:00+29ese56575 0.1 1006745
12:00+33se44465 0.1 10051525
15:00+35sse33405 0.0 10011942
18:00+34sse224291 0.3 10001286
21:00+28sse686975 1.1 1003616